World > North America > United States > Ohio

Montezuma, Ohio Regional Weather

Lat: 40.49N, Lon: 84.55W
Wx Zone: OHZ034Web Search
Montezuma Weather Warning NWS WEATHER ALERT FOR THE MONTEZUMA, OH AREA - HARD FROST ADVISORY Issued: 700 PM EDT Sun May 9 2021 Montezuma Weather Warning  

Helpful Tip: Type the letters wx in the search engine next time you need to find us.

Feedback


°F Click to change Montezuma hourly weather to Imperial units.Click to change Montezuma hourly weather to Metric units. °C
Montezuma Weather Map
UTC Time: 5/9/2021, 23:29
Your Time:

Montezuma, OH Regional Weather

Expires:202105100000;;863347
ASUS41 KCLE 092312
RWRCLE
OHIO REGIONAL WEATHER ROUNDUP
NATIONAL WEATHER SERVICE WILMINGTON, OH
700 PM EDT SUN MAY 09 2021

NOTE: "FAIR" INDICATES FEW OR NO CLOUDS BELOW 12,000 FEET WITH NO
SIGNIFICANT WEATHER AND/OR OBSTRUCTIONS TO VISIBILITY.


OHZ001>008-015>018-024>027-034-035-043-044-100000-
   NORTHWEST OHIO
  
CITY           SKY/WX    TMP DP  RH WIND       PRES   REMARKS
DEFIANCE       PTSUNNY   46  39  76 N9        29.92R                  
FINDLAY        CLOUDY    44  39  82 N18       29.88R                  
TOLEDO EXPRESS PTSUNNY   46  40  79 NE12      29.89R                  
TOLEDO EXEC    CLOUDY    45  38  76 NE13      29.89R                  
LIMA           NOT AVBL                                               
$$
 

SKY/WX - Weather  TMP - Temperature  DP - Dew Point  RH - Relative Humidity
WIND - Wind Direction/Speed PRES - Barometric Pressure VSB - Visibility
WCI - Wind Chill Index E13G22 Wind - East Wind 13 mph/Gusts of 22 mph